RH
18 15 12 11 14 16 18 20 21 22 26 33 40 46 51 56 57 55 55 56 59 68 66 55 54 54 52 54 53 52 55 53 50 52 55 58 58 54 51 51 54 57 56 53 56 57 56 56 59 58 56 55 55 53 51 53 54 51 48 47 45 43 41 40 40 40 41 43 46 49 51 52 53 53 53 51 52 56 57 57 57 56 54 53 54
19 16 13 11 13 15 16 19 20 22 25 30 36 44 49 52 55 56 56 57 58 68 69 58 53 56 54 54 56 55 53 51 50 53 55 55 55 54 53 53 54 57 57 55 56 59 60 60 62 61 57 54 53 54 53 52 53 53 50 48 47 45 43 42 42 41 41 43 46 51 54 55 56 56 56 56 55 56 59 61 61 59 56 53 53
19 17 15 13 13 15 15 16 19 21 24 27 32 40 48 53 56 59 61 62 60 65 70 63 57 60 60 58 58 57 55 49 46 47 50 50 51 50 50 52 55 58 60 57 56 60 61 61 62 62 59 55 52 52 54 53 52 52 52 49 47 47 46 45 44 41 41 42 46 51 56 58 58 57 57 58 59 59 59 62 63 61 57 53 53
21 19 17 16 15 16 15 14 16 20 23 26 29 35 46 54 58 60 64 65 61 63 68 67 62 61 63 61 57 55 54 50 45 44 46 47 47 46 46 49 53 57 59 58 58 60 61 60 61 62 60 57 53 51 53 55 53 53 54 52 49 48 48 47 46 44 42 43 45 50 56 59 59 58 57 58 60 61 61 64 66 65 61 57 54
23 21 18 17 17 17 15 13 14 18 22 25 28 31 40 51 56 58 61 61 61 61 63 67 66 62 62 61 56 52 51 48 46 46 46 47 46 44 44 47 52 54 55 57 59 62 62 60 60 62 61 57 53 52 53 55 55 54 55 55 52 50 50 49 48 46 45 45 45 48 54 59 61 61 58 57 59 61 62 65 67 67 66 61 58
27 23 20 17 18 17 16 13 13 16 21 24 27 29 35 45 52 55 56 58 60 61 60 64 69 65 62 61 56 52 50 48 46 47 47 48 47 46 45 46 50 52 52 55 59 62 63 61 59 61 62 58 54 52 53 55 56 55 55 56 55 53 51 50 49 47 47 48 47 46 49 55 61 63 60 57 58 59 60 63 66 68 68 65 61
34 26 23 19 18 17 16 14 13 16 21 24 27 28 30 40 51 55 57 57 59 61 59 63 69 67 63 63 59 54 52 50 47 46 47 48 47 48 49 48 49 51 52 54 56 59 62 63 61 60 61 59 56 53 53 55 55 54 55 56 57 56 53 51 49 48 47 48 49 48 46 48 54 60 60 59 61 62 63 65 67 68 68 66 64
40 30 26 22 18 18 18 17 15 16 21 24 26 28 29 36 48 57 62 62 60 60 58 60 67 68 65 66 63 58 55 53 50 47 45 45 46 47 50 52 52 52 52 53 54 56 60 63 63 61 61 60 57 53 52 53 54 54 54 57 58 58 56 53 51 49 48 48 49 50 48 46 47 52 56 59 63 66 67 68 69 69 69 68 67
43 33 28 25 21 20 22 22 19 19 24 27 27 28 29 33 42 54 64 67 64 61 58 57 62 67 69 70 67 62 58 55 52 48 44 42 43 44 48 53 55 54 52 53 53 54 57 59 61 61 60 58 56 54 52 51 51 50 51 54 58 61 60 56 53 51 49 48 49 50 51 50 48 50 53 55 58 60 65 68 70 71 72 71 69
49 40 33 29 24 22 22 23 21 21 25 30 31 29 30 31 37 48 62 69 68 64 59 56 58 65 69 71 69 65 62 58 55 51 47 43 41 41 43 47 51 51 50 51 54 54 55 55 58 60 60 57 55 54 53 51 47 45 46 47 52 58 61 60 56 52 50 48 48 49 51 51 50 51 53 54 54 56 61 67 72 74 74 73 71
49 45 38 33 27 23 23 24 22 21 24 30 32 31 32 33 37 46 59 68 69 67 65 61 59 63 68 70 69 67 65 63 59 54 49 46 44 42 42 44 46 46 46 47 51 54 55 55 55 58 59 56 53 53 53 50 45 42 43 44 46 50 54 58 58 54 51 49 49 50 51 50 49 50 52 54 54 55 59 65 71 76 77 76 74
50 48 43 39 32 27 27 28 26 25 25 26 29 32 34 35 38 46 57 65 68 69 71 69 65 65 67 71 72 69 68 67 62 56 51 48 46 44 43 43 45 47 48 46 48 53 57 57 55 55 57 55 52 52 53 50 45 43 44 46 48 49 50 54 58 57 53 51 51 52 52 51 49 49 50 53 54 54 57 61 66 71 75 77 76
55 55 51 46 39 34 33 30 28 28 27 25 26 30 33 35 39 46 55 62 66 68 70 71 70 69 67 69 71 70 68 68 66 62 57 54 52 48 46 46 46 49 52 52 53 57 60 60 56 54 54 53 52 52 52 49 45 44 46 49 51 54 54 53 56 58 56 54 54 54 54 54 53 50 49 51 54 57 61 64 65 68 73 76 77
52 55 52 44 39 37 36 33 30 29 27 26 25 27 29 30 36 46 54 60 64 66 67 68 70 71 66 64 68 70 69 68 68 66 63 62 60 56 54 54 54 55 56 56 59 62 63 63 59 54 53 53 52 52 52 50 48 46 48 50 53 56 56 54 55 57 58 57 56 56 55 55 55 52 49 51 55 59 64 67 69 71 73 76 77
50 49 45 40 36 34 33 33 34 33 31 30 28 28 29 28 33 44 52 56 60 62 63 64 65 66 64 61 63 67 69 69 68 67 66 66 65 62 61 62 63 62 60 58 61 64 65 66 62 55 52 52 52 53 54 53 52 50 50 50 51 54 55 54 55 58 59 58 57 58 57 56 57 55 52 54 59 62 65 68 70 71 74 76 77
52 47 43 43 41 37 32 31 34 36 35 34 32 32 32 30 34 42 47 52 58 59 61 64 65 64 62 59 58 59 61 63 64 64 66 68 69 67 68 70 70 68 64 61 65 70 72 72 66 57 52 52 53 56 58 57 55 53 53 52 51 52 51 52 55 57 58 58 58 59 58 57 58 58 55 56 61 64 68 71 73 74 76 78 79
54 50 49 51 50 46 39 33 33 36 37 35 34 33 33 32 35 40 44 50 57 60 61 63 63 62 61 60 59 56 56 59 61 62 65 67 67 66 69 75 75 70 65 63 63 65 68 69 67 64 60 56 57 59 59 58 56 53 53 52 50 49 48 50 55 56 55 58 59 60 60 59 60 60 57 56 60 65 69 73 74 74 76 79 78
57 56 57 58 55 52 47 38 33 35 41 42 38 35 36 38 40 41 44 50 54 55 57 60 62 62 61 62 63 60 58 60 63 64 66 69 69 68 71 75 73 68 67 65 61 60 59 57 61 70 71 63 60 60 58 57 55 52 50 50 48 45 45 49 54 54 54 58 60 61 61 60 62 63 58 56 59 64 68 70 70 71 74 77 76
59 61 63 62 56 52 52 46 37 33 40 47 45 41 42 46 47 45 48 56 60 57 57 60 62 61 60 62 64 64 64 64 65 68 70 72 72 71 73 74 72 71 73 70 64 62 60 54 56 68 76 70 63 61 59 57 56 52 50 49 45 43 45 50 53 53 54 58 60 61 62 61 64 65 61 58 62 66 68 70 71 72 73 74 74
64 65 67 67 59 52 52 52 47 40 41 46 49 50 50 51 51 48 48 56 63 63 62 62 61 56 54 56 58 60 63 66 68 69 71 71 69 70 74 75 74 77 78 74 70 67 63 60 59 67 77 74 64 61 59 58 58 56 53 49 46 46 50 54 57 57 57 59 61 61 61 62 65 68 65 64 67 71 72 73 75 76 77 75 74
66 66 72 73 64 55 54 56 56 52 49 49 52 56 54 50 50 52 53 55 56 57 57 57 56 54 52 50 50 51 54 61 68 71 72 72 69 71 76 75 75 79 80 77 77 73 67 65 63 68 76 73 63 61 61 60 59 57 55 52 51 53 56 57 57 57 57 58 59 59 58 61 66 71 70 70 73 74 74 74 77 79 79 75 75
67 67 77 80 71 61 57 59 62 63 61 60 63 63 57 48 48 56 63 64 60 57 56 54 54 56 55 53 52 52 52 59 70 75 76 75 72 73 75 73 74 78 78 78 80 76 69 66 65 70 76 72 63 62 64 63 59 56 56 56 55 57 59 57 55 55 55 56 56 55 56 60 67 74 75 75 74 73 71 72 76 78 77 74 74
73 73 80 83 76 65 60 63 68 71 70 70 70 66 58 52 52 59 66 66 64 63 62 59 56 57 58 56 57 58 58 62 69 73 74 74 72 72 73 73 74 73 72 77 82 76 68 65 66 72 78 73 65 63 64 64 61 57 57 57 58 61 63 60 56 55 55 54 53 52 53 59 68 75 77 76 74 71 71 73 77 77 77 77 77
74 75 80 83 78 68 63 67 73 75 75 74 73 69 65 62 62 63 64 63 62 62 63 63 62 61 61 61 60 58 57 58 63 68 70 71 71 72 71 71 71 69 68 75 82 78 69 64 65 74 80 75 67 64 62 62 61 60 59 59 60 63 63 60 58 56 53 52 51 50 53 59 67 73 76 75 73 72 72 75 77 78 79 80 80
71 72 75 79 78 72 69 70 74 78 78 77 74 72 70 69 68 68 68 66 64 65 66 67 68 67 66 65 63 58 54 55 60 65 67 67 68 70 70 68 69 67 65 69 76 75 69 64 67 76 82 77 68 61 59 61 63 64 63 62 61 61 60 58 57 55 52 52 52 53 57 61 66 72 75 74 74 75 75 76 77 80 82 82 82
73 72 72 76 77 76 75 75 78 82 83 80 77 75 73 71 69 70 71 70 69 70 71 71 71 71 69 66 63 59 56 58 63 66 67 65 65 67 68 69 73 73 68 66 69 70 69 71 74 78 82 79 70 60 57 61 65 66 67 65 62 61 59 58 56 55 57 58 58 60 62 63 66 72 75 75 76 75 73 73 74 76 78 79 80
75 70 70 75 78 78 78 78 80 83 85 83 80 78 78 76 72 69 70 73 74 75 75 74 73 71 68 65 63 61 61 62 65 65 65 64 65 69 71 74 79 80 73 69 70 71 74 78 81 81 81 78 68 59 57 59 60 60 62 62 60 59 58 58 59 62 65 64 62 64 65 64 65 68 70 70 69 66 65 68 71 72 72 74 76
72 67 65 70 76 78 78 76 76 79 82 82 79 78 77 75 74 73 73 73 73 71 70 69 66 63 63 64 64 64 63 64 65 66 68 68 70 73 75 76 78 78 72 69 71 75 78 81 83 85 83 75 65 59 59 59 58 59 60 60 59 58 56 57 62 67 68 66 65 67 69 68 66 64 62 60 59 60 64 70 73 73 72 72 73
68 66 64 65 68 71 71 68 67 71 76 77 76 76 75 71 71 74 76 74 70 66 66 66 63 59 59 62 63 64 65 67 69 72 75 76 75 76 76 75 75 74 72 72 74 77 79 81 82 82 79 72 64 61 61 61 62 62 60 58 56 56 55 56 61 64 65 67 67 68 69 69 67 62 57 55 58 64 70 74 75 74 72 70 70
65 63 63 63 63 63 65 64 62 65 70 70 68 68 67 65 65 68 73 73 71 69 70 70 67 62 59 59 60 62 66 71 75 79 81 80 77 76 75 77 78 77 74 75 77 78 78 78 77 75 72 67 63 62 63 63 62 60 58 56 57 58 59 59 61 62 64 67 69 68 67 67 66 61 56 57 64 71 75 77 76 73 69 68 68
65 61 60 61 60 58 59 62 62 63 66 65 63 62 62 61 60 61 65 67 67 68 69 71 70 66 62 60 58 60 66 73 78 81 83 82 79 75 74 77 80 78 74 74 77 78 78 77 76 74 71 67 64 62 63 64 62 60 59 59 60 61 61 63 65 64 65 70 73 70 66 64 63 60 58 62 70 75 77 77 74 71 68 67 67
69 64 60 59 59 57 55 57 59 63 65 65 63 60 59 58 56 56 57 59 61 63 65 67 68 65 61 58 57 59 65 70 73 74 76 76 74 71 71 75 78 77 74 74 76 76 77 77 75 72 71 68 64 61 62 63 62 61 61 62 63 62 63 68 70 68 69 73 73 69 65 62 62 61 63 68 74 76 77 75 71 70 68 66 66
66 65 61 57 57 57 56 55 56 60 63 64 61 56 53 53 55 55 53 53 56 61 64 66 67 67 66 63 60 59 60 61 63 67 69 69 68 68 69 72 74 73 72 71 72 72 73 75 74 71 69 67 64 61 62 63 63 63 63 62 62 62 64 70 72 71 72 72 69 65 63 62 63 66 69 73 76 78 78 75 71 68 66 65 65
59 61 62 59 57 57 58 58 58 59 58 57 57 54 52 54 58 58 54 49 48 52 57 60 62 66 70 72 69 65 64 64 65 67 67 65 65 69 72 73 73 73 71 68 67 66 66 68 70 70 69 68 66 63 63 64 65 65 63 60 61 63 67 71 74 75 73 68 64 62 62 62 65 70 73 76 79 80 79 75 71 67 64 62 62
52 56 61 64 63 63 63 61 59 58 57 56 55 54 55 57 60 60 57 53 47 44 45 47 49 53 58 63 64 63 63 64 66 67 66 64 65 67 69 68 68 70 69 65 65 65 64 64 67 69 68 69 68 66 65 65 65 63 60 58 61 65 68 72 75 76 71 66 62 62 62 64 69 73 75 77 81 80 78 76 72 66 62 60 62
46 48 54 59 61 64 66 66 63 61 61 61 60 59 57 59 62 62 61 60 55 48 42 40 40 41 43 46 48 50 54 56 60 64 67 65 64 63 61 59 60 62 62 61 62 64 63 63 66 67 65 65 65 64 64 65 64 61 59 59 62 65 67 71 75 76 72 68 65 63 63 66 71 73 75 78 80 78 76 76 72 65 61 61 63
45 44 46 49 51 53 58 62 64 62 60 61 63 62 59 58 59 61 62 62 60 55 48 41 37 35 35 35 35 38 42 47 52 57 61 62 62 61 58 58 60 60 60 60 61 60 62 65 67 64 59 56 57 59 62 63 63 63 61 61 63 66 70 73 76 78 76 72 67 65 66 69 71 73 76 78 78 77 77 75 68 62 60 61 63
47 46 45 46 46 46 48 52 56 59 59 59 61 62 60 56 53 54 58 60 59 56 52 49 45 40 36 35 33 31 32 34 38 44 49 55 60 61 59 61 64 65 64 62 59 58 64 69 68 63 57 54 54 58 60 61 63 64 62 60 63 70 75 78 82 83 80 73 68 66 68 70 71 74 76 76 76 76 74 68 61 59 60 62 64
44 44 45 46 46 46 45 45 47 50 52 53 55 58 59 57 54 52 52 54 54 53 53 53 52 48 45 45 44 40 38 37 38 41 44 49 54 57 58 62 66 67 67 65 61 60 66 72 71 64 57 53 54 58 60 60 63 65 62 59 62 69 75 80 84 83 77 71 68 67 69 72 74 76 77 78 77 74 69 63 60 61 64 68 69
41 41 42 43 46 49 50 49 47 46 47 48 49 51 54 57 59 58 56 53 53 53 53 54 55 53 51 52 53 52 49 47 47 49 50 48 46 46 51 59 65 67 66 65 62 61 64 68 68 62 55 52 56 61 63 63 64 64 62 61 64 71 76 80 84 83 77 72 71 71 74 77 78 77 78 79 77 73 67 63 61 63 65 67 68
43 42 41 41 44 47 50 52 53 53 53 53 52 50 51 53 56 58 58 54 49 48 51 57 61 60 58 57 58 60 59 56 53 52 52 49 47 45 47 55 64 69 70 68 64 61 61 63 63 59 55 56 60 63 63 64 64 65 66 68 75 81 83 84 86 84 78 74 74 76 78 79 79 78 77 76 75 73 68 63 60 60 61 64 67
45 44 43 42 42 44 45 48 50 52 54 54 54 52 51 49 50 54 56 54 48 46 49 55 61 65 66 65 64 65 66 65 61 58 56 54 52 50 49 51 56 63 70 72 69 62 57 55 56 54 54 56 59 60 61 64 66 68 72 78 84 87 86 87 87 83 77 75 76 77 78 79 79 76 73 72 75 76 72 66 65 65 65 67 70
50 48 47 45 43 43 44 45 46 47 48 50 50 51 50 49 49 51 54 53 50 49 49 51 55 60 65 67 66 65 66 66 64 62 61 60 58 55 52 51 51 54 60 66 68 64 57 53 52 52 52 54 54 55 56 60 64 69 75 82 86 86 86 88 87 82 77 77 77 77 78 78 77 74 72 73 78 79 74 70 69 69 69 70 71
58 55 52 50 48 47 46 45 45 45 45 46 46 47 48 49 49 49 50 51 51 50 50 49 49 50 54 58 62 63 64 64 63 62 61 60 58 54 51 50 51 52 53 56 60 63 63 60 57 56 55 55 55 55 56 58 63 70 77 84 86 85 86 88 86 81 79 79 78 76 77 78 76 77 78 80 81 80 74 71 71 71 70 71 72
70 65 62 59 57 54 51 48 46 45 44 43 42 42 42 43 45 46 46 47 47 47 47 46 44 42 43 46 51 56 59 60 61 59 56 54 53 51 47 46 49 53 56 58 60 63 65 66 64 62 60 59 60 61 62 63 66 73 79 84 86 87 87 86 85 82 82 81 80 81 81 81 81 85 88 86 82 77 72 70 71 72 71 72 73
81 77 73 70 67 63 60 57 54 52 49 47 45 43 42 41 42 42 42 43 43 43 43 42 41 40 39 39 42 46 50 50 50 50 50 49 48 47 44 42 44 48 52 56 59 61 63 66 67 66 65 62 59 58 60 63 67 72 77 82 85 88 87 87 87 88 87 86 86 88 89 86 84 86 88 86 81 76 74 75 76 75 74 74 73
75 79 80 80 79 76 73 69 66 63 60 57 54 52 50 49 48 46 45 44 43 43 46 48 47 44 43 43 42 44 46 45 44 45 47 48 49 48 46 44 44 45 46 47 49 49 51 53 56 59 61 60 55 52 56 61 65 69 75 82 87 90 90 89 89 90 91 91 92 94 95 93 89 86 86 87 84 81 81 82 80 77 76 75 73
56 64 71 77 81 84 85 84 81 77 73 70 66 63 60 59 58 58 57 54 51 50 54 57 56 53 52 53 53 52 52 50 49 49 49 48 47 47 46 44 44 44 44 44 44 44 44 45 46 50 56 59 59 58 61 64 65 70 78 86 90 93 94 93 92 92 94 96 97 97 97 96 92 88 88 90 89 86 85 83 80 78 78 76 74
42 48 55 61 68 75 82 87 91 91 89 85 82 78 74 70 68 65 64 63 61 58 58 59 60 61 63 64 65 63 60 56 54 53 52 50 48 47 46 45 45 45 47 47 46 44 43 43 43 44 50 56 62 67 70 72 74 81 88 93 95 96 98 97 97 97 98 99 100 99 97 94 91 89 87 86 84 83 83 82 81 80 79 75 72
36 40 44 49 54 60 68 76 84 90 94 95 95 93 92 89 85 79 72 68 65 63 61 62 64 67 68 68 68 66 62 58 57 56 55 55 56 56 55 54 54 54 54 53 49 46 44 44 46 49 54 59 65 72 78 82 87 93 97 98 98 99 100 99 99 99 100 100 100 100 98 95 94 92 89 86 84 83 83 83 82 80 77 74 72
35 36 39 42 45 48 53 59 67 76 85 92 96 98 98 98 98 95 88 80 74 70 67 67 68 69 69 68 67 66 64 62 61 62 63 64 64 65 66 67 66 65 66 64 59 54 53 54 57 60 63 65 68 74 83 91 96 99 99 99 98 98 99 99 99 99 100 100 100 100 99 98 97 96 93 91 90 89 88 86 82 78 76 75 74